Regional Weather Roundup
Issued by NWS Midland/Odessa, TX

Home | Current Version | Previous Version | Text Only | Print | Product List | Glossary On
Versions: 1 2 3 4 5 6 7 8 9 10 11 12 13 14 15 16 17 18 19 20 21 22 23 24 25 26 27 28 29 30 31 32 33 34 35 36 37 38 39 40 41 42 43 44 45 46 47 48 49 50
000
ASUS44 KMAF 230810
RWRMAF
MIDLAND AREA WEATHER ROUNDUP
NATIONAL WEATHER SERVICE MIDLAND TX
300 AM CDT FRI JUN 23 2017

...IN SOUTHWEST TEXAS AND SOUTHEAST NEW MEXICO...

CITY           SKY/WX    TMP DP  RH WIND       PRES   REMARKS
ALPINE         CLOUDY    79  51  37 SW6       29.96S
ANDREWS        CLOUDY    83  52  33 S8        29.78S
ARTESIA        CLEAR     86  52  30 SE10      29.79S
BIG SPRING     PTCLDY    82  57  42 SE9       29.76F
CARLSBAD       CLOUDY    87  55  33 SE14G24   29.73F
DRYDEN           N/A     81  57  43 N7        29.74S
FORT STOCKTON  CLOUDY    84  56  38 SE14      29.77S
GUAD PASS      CLOUDY    79  48  33 NE16        N/A
HOBBS          CLEAR     79  48  34 S7        29.82S
MARFA          CLOUDY    78  50  37 E5        29.96S
MIDLAND AIRPK  PTCLDY    89  55  31 S7        29.77F
MIDLAND INTL   CLOUDY    89  56  32 S8        29.77F
ODESSA         CLOUDY    88  56  33 S9        29.78F
PECOS          CLOUDY    88  56  32 E13       29.72R
PRESIDIO       FAIR      91  49  24 N7        29.78R
SEMINOLE       PTCLDY    82  48  30 SW12G17   29.79S
SNYDER         CLEAR     80  56  43 SE15      29.74F
WINK           CLOUDY    87  57  35 SE13      29.74F
$$
...OTHER STATIONS IN TEXAS...

CITY           SKY/WX    TMP DP  RH WIND       PRES   REMARKS
ABILENE        CLEAR     76  61  59 SE10      29.74S
AMARILLO       PTCLDY    74  57  55 NE6       29.91R
AUSTIN         PTCLDY    79  75  87 S7        29.73S
BROWNSVILLE    CLEAR     82  77  84 S17G26    29.73F
CORPUS CHRISTI PTCLDY    83  79  88 S10       29.71S
DALLAS FTW     MOCLDY    79  74  84 S9        29.70F
DEL RIO        CLEAR     82  63  52 E7        29.67S
EL PASO        CLOUDY    95  37  13 W15       29.80F
HOUSTON INT    MOCLDY    81  77  88 S6        29.77R
LUBBOCK        CLOUDY    81  55  40 E7        29.79R
SAN ANGELO     CLEAR     76  54  46 SE5       29.74S
SAN ANTONIO    CLEAR     80  73  79 SE9       29.74S
WACO           MOCLDY    79  75  87 S7        29.73S
WICHITA FALLS  NOT AVBL
$$
...OTHER LOCATIONS IN NEW MEXICO...

CITY           SKY/WX    TMP DP  RH WIND       PRES   REMARKS
ALAMOGORDO     CLOUDY    86  36  16 W5        29.84S
ALBUQUERQUE    CLEAR     80  20  10 W5        29.96R
CANNON AFB     MOCLDY    73  58  59 E12       29.90R
CLOVIS         LGT RAIN  72  60  66 N7        29.90R
HOLLOMAN AFB   CLOUDY    87  40  19 E3        29.84S
ROSWELL        CLOUDY    86  48  26 S15       29.78F
RUIDOSO        CLOUDY    79  34  19 S7        30.10S
SANTA FE       CLOUDY    66  23  19 S7        30.04R
TRUTH OR CONSE CLEAR     86  28  12 NW17      29.89F
TUCUMCARI      CLEAR     72  61  68 N6        29.88R
$$



USA.gov is the U.S. government's official web portal to all federal, state and local government web resources and services.